User: anonymous   Login
Location: Unspecified
(0.0000°N, 0.0000°E)
Time: 23:45:20
(UTC+02:00)
Language:

Cosmos 1092 Rocket - Orbit

View from above orbital plane
View from above orbital plane
View from above satellite
View from above satellite

Ground track
Ground track

The orbit data is extracted from the following two-line orbital elements,

1 11327U 79030B   15243.07574120  .00000112  00000-0  98247-4 0  9992
2 11327 082.9468 063.0303 0026899 214.1288 282.3689 13.76966835828840
Epoch (UTC): 31 August 2015 01:49:04
Eccentricity: 0.0026899
inclination: 82.9468°
perigee height: 955 km
apogee height: 994 km
right ascension of ascending node: 63.0303°
argument of perigee: 214.1288°
revolutions per day: 13.76966835
mean anomaly at epoch: 282.3689°
orbit number at epoch: 82884

The dashed part of the orbit path shows where the satellite is in the earth's shadow,  

DLR